Weather History for Nome, AK

Change the Weather History Date:

Sunday, May 6, 2012

  Actual Average Record
Temperature  
Mean Temperature 28 °F 32 °F  
Max Temperature 38 °F 38 °F 59 °F (1991)
Min Temperature 18 °F 26 °F 1 °F (1952)
Degree Days  
Heating Degree Days 37 33  
Month to date heating degree days 279 204  
Since 1 July heating degree days 14004 12517  
Cooling Degree Days 0    
Month to date cooling degree days 0  
Year to date cooling degree days 0  
Moisture  
Dew Point 20 °F    
Average Humidity 0    
Maximum Humidity 0    
Minimum Humidity 0    
Precipitation  
Precipitation 0.00 in 0.03 in 0.41 in (2004)
Month to date precipitation 0.04 0.17  
Year to date precipitation 1.94 3.45  
Snow  
Snow 0.00 in 0.10 in 3.60 in (1985)
Month to date snowfall 0.9 0.8  
Since 1 July snowfall 80.6 73.9  
Snow Depth 7.00 in    
Sea Level Pressure  
Sea Level Pressure 29.91 in    
Wind  
Wind Speed 5 mph (WSW)    
Max Wind Speed 21 mph    
Max Gust Speed 25 mph    
Visibility 10 miles    
Events      
T = Trace of Precipitation, MM = Missing Value Source: NWS Daily Summary

Daily Weather History Graph

Daily Weather History Graph

Search for Another Location

Airport:

Trip Planner

Search our weather history database for the weather conditions in past years. The results will help you decide how hot, cold, wet, or windy it might be!

Date:

Astronomy

May. 06, 2012 Rise Set
Actual Time 6:11 AM AKDT 11:48 PM AKDT
Civil Twilight 4:49 AM AKDT 1:11 AM AKDT
Nautical Twilight Sun does not rise Sun does not rise
Astronomical Twilight Sun does not rise Sun does not rise
Moon 12:13 AM AKDT (5/6) 6:06 AM AKDT (5/6)
Length of Visible Light 20h 22m
Length of Day
17h 37m
Full, 99% of the Moon is Illuminated
May 6
Full
May 12
Last Quarter
May 20
New
May 28
First Quarter
Jun 4
Full

Hourly Weather History & Observations

Time (AKDT) Temp. Windchill Dew Point Humidity Pressure Visibility Wind Dir Wind Speed Gust Speed Precip Events Conditions
12:53 AM 26.1 °F 21.9 °F 21.9 °F 84% 30.02 in 10.0 mi NNE 3.5 mph - N/A   Partly Cloudy
1:53 AM 26.1 °F - 18.0 °F 71% 30.01 in 10.0 mi Calm Calm - N/A   Partly Cloudy
2:53 AM 21.9 °F - 18.0 °F 85% 30.00 in 10.0 mi Calm Calm - N/A   Partly Cloudy
3:53 AM 21.0 °F - 16.0 °F 81% 29.99 in 10.0 mi Calm Calm - N/A   Partly Cloudy
4:53 AM 21.9 °F - 14.0 °F 72% 29.98 in 10.0 mi Calm Calm - N/A   Partly Cloudy
5:53 AM 19.0 °F - 16.0 °F 88% 29.97 in 10.0 mi Calm Calm - N/A   Partly Cloudy
6:53 AM 19.9 °F - 15.1 °F 81% 29.96 in 10.0 mi Calm Calm - N/A   Partly Cloudy
7:53 AM 19.9 °F - 12.9 °F 74% 29.95 in 10.0 mi Calm Calm - N/A   Partly Cloudy
8:53 AM 23.0 °F - 17.1 °F 78% 29.94 in 10.0 mi Calm Calm - N/A   Partly Cloudy
9:53 AM 24.1 °F 19.7 °F 17.1 °F 75% 29.94 in 10.0 mi East 3.5 mph - N/A   Partly Cloudy
10:53 AM 25.0 °F 18.1 °F 17.1 °F 72% 29.93 in 10.0 mi South 5.8 mph - N/A   Clear
11:53 AM 26.1 °F 18.4 °F 17.1 °F 69% 29.91 in 10.0 mi WSW 6.9 mph - N/A   Clear
12:53 PM 26.1 °F 17.6 °F 19.9 °F 78% 29.90 in 10.0 mi WSW 8.1 mph - N/A   Clear
1:53 PM 28.0 °F 20.8 °F 19.9 °F 72% 29.89 in 10.0 mi WSW 6.9 mph - N/A   Clear
2:53 PM 28.0 °F 19.3 °F 19.9 °F 72% 29.87 in 10.0 mi WSW 9.2 mph - N/A   Partly Cloudy
3:53 PM 30.0 °F 21.7 °F 21.9 °F 72% 29.86 in 10.0 mi WSW 9.2 mph - N/A   Partly Cloudy
4:53 PM 30.9 °F 23.5 °F 23.0 °F 72% 29.85 in 10.0 mi West 8.1 mph - N/A   Partly Cloudy
5:53 PM 32.0 °F 25.6 °F 23.0 °F 69% 29.84 in 10.0 mi WSW 6.9 mph - N/A   Partly Cloudy
6:53 PM 34.0 °F 28.8 °F 26.1 °F 73% 29.83 in 10.0 mi West 5.8 mph - N/A   Partly Cloudy
7:53 PM 34.0 °F 28.8 °F 27.0 °F 75% 29.81 in 10.0 mi SW 5.8 mph - N/A   Partly Cloudy
8:53 PM 32.0 °F 27.5 °F 26.1 °F 79% 29.83 in 10.0 mi SE 4.6 mph - N/A   Partly Cloudy
9:53 PM 34.0 °F 31.0 °F 23.0 °F 64% 29.83 in 10.0 mi NNW 3.5 mph - N/A   Partly Cloudy
10:53 PM 32.0 °F 24.8 °F 21.9 °F 66% 29.83 in 10.0 mi North 8.1 mph - N/A   Partly Cloudy
11:53 PM 32.0 °F 20.8 °F 19.9 °F 61% 29.84 in 10.0 mi North 17.3 mph - N/A   Partly Cloudy